Weather History for Sitka, AK

Change the Weather History Date:

Thursday, March 14, 2013

  Actual Average Record
Temperature  
Mean Temperature 34 °F -  
Max Temperature 39 °F 43 °F 52 °F (1979)
Min Temperature 28 °F 32 °F 6 °F (2006)
Degree Days  
Heating Degree Days 32    
Moisture  
Dew Point 24 °F    
Average Humidity 65    
Maximum Humidity 92    
Minimum Humidity 46    
Precipitation  
Precipitation 0.00 in - - ()
Sea Level Pressure  
Sea Level Pressure 29.77 in    
Wind  
Wind Speed 5 mph (ESE)    
Max Wind Speed 17 mph    
Max Gust Speed 21 mph    
Visibility 10 miles    
Events      
Averages and records for this station are not official NWS values.
T = Trace of Precipitation, MM = Missing Value Source: NWS Daily Summary

Daily Weather History Graph

Daily Weather History Graph

Search for Another Location

Airport:

Trip Planner

Search our weather history database for the weather conditions in past years. The results will help you decide how hot, cold, wet, or windy it might be!

Date:

Astronomy

Mar. 14, 2013 Rise Set
Actual Time 7:18 AM AKDT 7:03 PM AKDT
Civil Twilight 6:40 AM AKDT 7:41 PM AKDT
Nautical Twilight 5:55 AM AKDT 8:26 PM AKDT
Astronomical Twilight 5:09 AM AKDT 9:13 PM AKDT
Moon 7:54 AM AKDT (3/14) 11:17 PM AKDT (3/14)
Length of Visible Light 13h 00m
Length of Day
11h 44m
Waxing Crescent, 10% of the Moon is Illuminated
Mar 14
Waxing Crescent
Mar 19
First Quarter
Mar 27
Full
Apr 2
Last Quarter
Apr 10
New

Hourly Weather History & Observations

Time (AKDT) Temp. Windchill Dew Point Humidity Pressure Visibility Wind Dir Wind Speed Gust Speed Precip Events Conditions
12:53 AM 30.0 °F - 28.0 °F 92% 29.86 in 10.0 mi Calm Calm - N/A   Partly Cloudy
1:53 AM 32.0 °F - 27.0 °F 82% 29.86 in 10.0 mi Calm Calm - N/A   Clear
2:53 AM 28.9 °F - 27.0 °F 92% 29.85 in 10.0 mi Calm Calm - N/A   Mostly Cloudy
3:53 AM 28.9 °F 25.2 °F 27.0 °F 92% 29.84 in 10.0 mi East 3.5 mph - N/A   Mostly Cloudy
4:53 AM 28.0 °F - 25.0 °F 88% 29.82 in 10.0 mi Calm Calm - N/A   Partly Cloudy
5:53 AM 32.0 °F 20.8 °F 23.0 °F 69% 29.81 in 10.0 mi ESE 17.3 mph - N/A   Mostly Cloudy
6:53 AM 32.0 °F 26.4 °F 21.9 °F 66% 29.81 in 10.0 mi East 5.8 mph - N/A   Mostly Cloudy
7:53 AM 33.1 °F 27.7 °F 27.0 °F 78% 29.78 in 10.0 mi NW 5.8 mph - N/A   Clear
8:53 AM 34.0 °F 29.8 °F 26.1 °F 73% 29.78 in 10.0 mi NW 4.6 mph - N/A   Scattered Clouds
9:53 AM 35.1 °F 32.2 °F 25.0 °F 67% 29.78 in 10.0 mi WNW 3.5 mph - N/A   Mostly Cloudy
10:53 AM 36.0 °F 30.3 °F 25.0 °F 64% 29.77 in 10.0 mi West 6.9 mph - N/A   Mostly Cloudy
11:53 AM 37.0 °F 32.4 °F 24.1 °F 59% 29.76 in 10.0 mi West 5.8 mph - N/A   Overcast
12:53 PM 39.0 °F 35.7 °F 23.0 °F 53% 29.74 in 10.0 mi South 4.6 mph - N/A   Scattered Clouds
1:53 PM 39.0 °F 32.8 °F 24.1 °F 55% 29.73 in 10.0 mi West 9.2 mph - N/A   Scattered Clouds
2:53 PM 39.0 °F 35.7 °F 19.9 °F 46% 29.72 in 10.0 mi ESE 4.6 mph 16.1 mph N/A   Partly Cloudy
3:53 PM 39.0 °F 31.8 °F 21.0 °F 49% 29.71 in 10.0 mi ESE 11.5 mph 16.1 mph N/A   Mostly Cloudy
4:53 PM 37.9 °F 30.9 °F 21.0 °F 51% 29.71 in 10.0 mi ESE 10.4 mph - N/A   Mostly Cloudy
5:53 PM 37.9 °F 30.5 °F 21.0 °F 51% 29.71 in 10.0 mi ESE 11.5 mph - N/A   Scattered Clouds
6:53 PM 37.0 °F 31.6 °F 19.0 °F 48% 29.72 in 10.0 mi East 6.9 mph - N/A   Overcast
7:53 PM 37.0 °F 33.3 °F 21.0 °F 52% 29.73 in 10.0 mi East 4.6 mph - N/A   Overcast
8:53 PM 36.0 °F - 23.0 °F 59% 29.73 in 10.0 mi Calm Calm - N/A   Overcast
9:53 PM 36.0 °F 28.0 °F 24.1 °F 62% 29.74 in 10.0 mi East 11.5 mph 20.7 mph 0.00 in   Overcast
10:53 PM 36.0 °F 29.6 °F 23.0 °F 59% 29.74 in 10.0 mi ESE 8.1 mph 16.1 mph N/A   Overcast
11:53 PM 36.0 °F 26.3 °F 23.0 °F 59% 29.75 in 10.0 mi East 16.1 mph - N/A   Overcast